COSMOS 2251 DEB, 40796

Orbit data source: Space-Track

COSMOS 2251 DEB, 40796 is space debris in LEO originally from a launch on Wed, 16 Jun 1993 UTC launched from the Plesetsk Missile And Space Complex (PKMTR). The debris from Iridium 33, an American commercial communications satellite, has been tracked extensively since its accidental collision with the defunct Russian satellite Cosmos 2251 in 2009. This event, occurring at high speed in low Earth orbit (LEO), generated thousands of pieces of space debris, significantly increasing the risk of further collisions. The Iridium 33 debris cloud has impacted space traffic management and orbital debris mitigation strategies, making it a subject of ongoing study in space situational awareness.

Loading next visibility...
Identifier
40796, 1993-036BVZ
Orbit
LEO
Country
Flag of CISCIS
Related business
Manufacturer
Unknown
Mission
Spacecraft
Bus & Motor
Unknown
Mass
Unknown
Launch date (UTC)
1993-06-16 (32 years ago)
Launch vehicle
Unknown
Launch site
Plesetsk Missile And Space Complex (PKMTR)
Object type
Payload
Rocket body
Debris
Shape & HBR
Unknown
Radar Cross Section
Small (<0.1 m²)

Expand to show TLE details & history
Last TLE update: 2 days ago

TLE from 2 days ago
0 COSMOS 2251 DEB
1 40796U 93036BVZ 25257.45882603  .00003705  00000-0  48236-3 0  9995
2 40796  74.0145 318.5238 0055878 116.9440 258.5722 14.79906102748376
Epoch: 2025-09-14T11:00Z
TLE epoch observation values (Epoch: 2025-09-14T11:00:42.569Z)
Latitude
14.27762°
Longitude
163.82687°
Altitude
639.522 km
Speed
7.535 km/s
True Right ascension
21h 30m 43s
True Declination
14° 11' 39"
Sunlit
Object was in full shadow at epoch
Visualization orbit readout
Latitude
Unknown
Longitude
Unknown
Altitude
Unknown
Speed
Unknown
Apparent Right ascension
Unknown
Apparent Declination
Unknown
Sunlit
N/A
Visualization observer readout
Local Sidereal Time
00:16:26
Azimuth
Unknown
Elevation
Unknown
Doppler factor
Unknown
Orbital elements
Apogee altitude
666.342 km
Perigee altitude
588.054 km
Semi-major axis
7,005.335 km
Eccentricity
0.00559
Inclination
74.0145°
RAAN
318.5238°
Arg. of periapsis
116.944°
True anomaly
257.94546°
Mean anomaly
258.5722°
Eccentric anomaly
258.25874°
Mean motion
3.70169 °/min
Orbital period
97.25 mins
BSTAR
0.00048236
Loading maneuver chart data...
Computing Atmospheric mass density...

Documentation

Showing up to 5 results
|